Home   Weather   Pau   Past weeks

Flag for France Past Weather in Pau, Aquitaine, France — Yesterday and Last 2 Weeks

55 °F

More clouds than sun.

Feels Like: 55 °F
Forecast: 42 / 68 °F
Wind: 3 mph from North

Location: Pau Airport

Current Time: Oct 27, 2016 at 11:11:46 AM

Latest Report: Oct 27, 2016 at 10:30 AM

Visibility: 5 mi

Pressure: 30.42 "Hg

Humidity: 100%

Dew Point: 55 °F

Location of PauLocation

Past Weather in Pau — Graph


Pau Temperature Yesterday

Maximum temperature yesterday: 68 °F (at 5:30 PM)
Minimum temperature yesterday: 55 °F (at 1:30 AM)
Average temperature yesterday: 61 °F

High & Low Weather Summary for the Past Weeks

High75 °F (Oct 15, 3:00 PM)100% (Oct 13, 8:30 PM)30.42 "Hg (Oct 13, 8:30 PM)
Low39 °F (Oct 21, 8:30 AM)25% (Oct 15, 3:00 PM)29.53 "Hg (Oct 13, 6:30 AM)
Average57 °F80%29.98 "Hg
* Reported Oct 12 10:00 AM — Oct 27 10:00 AM, Pau, Weather by CustomWeather, © 2016

Note: Actual official high and low records may vary slightly from our data, if they occured in-between our weather recording intervals... More about our weather records


Pau Weather History for the Previous 24 Hours

Scroll right to see more
Time TempWeatherWind HumidityBarometerVisibility
10:00 AM
Thu, Oct 27
55 °FFog.5 mph100%30.42 "Hg1 mi
9:30 AM55 °FFog.2 mph100%30.42 "Hg1 mi
9:00 AM55 °FFog.3 mph100%30.42 "Hg0 mi
8:30 AM55 °FFog.3 mph94%30.42 "Hg1 mi
8:00 AM55 °FDense fog.3 mph100%30.42 "Hg1 mi
7:30 AM55 °FFog.3 mph100%30.39 "Hg1 mi
7:00 AM55 °FFog.3 mph100%30.39 "Hg1 mi
6:30 AM55 °FFog.3 mph100%30.39 "Hg1 mi
6:00 AM57 °FDense fog.2 mph94%30.39 "Hg1 mi
5:30 AM57 °FFog.1 mph94%30.39 "Hg2 mi
5:00 AM57 °FFog.3 mph94%30.39 "Hg1 mi
4:30 AM57 °FFog.2 mph94%30.39 "Hg1 mi
4:00 AM57 °FFog.3 mph94%30.39 "Hg1 mi
3:30 AM57 °FFog.3 mph94%30.42 "Hg1 mi
3:00 AM57 °FFog.3 mph94%30.42 "Hg2 mi
2:30 AM57 °FLow clouds.5 mph94%30.42 "Hg4 mi
2:00 AM59 °FLow clouds.5 mph94%30.42 "Hg4 mi
1:30 AM59 °FLow clouds.3 mph94%30.42 "Hg5 mi
12:30 AM61 °FLow clouds.3 mph94%30.39 "Hg4 mi
12:00 AM61 °FLow clouds.6 mph94%30.39 "Hg4 mi
11:30 PM
Wed, Oct 26
61 °FMostly cloudy.5 mph94%30.39 "Hg4 mi
11:00 PM61 °FMostly cloudy.3 mph94%30.39 "Hg4 mi
10:30 PM59 °FPassing clouds.3 mph94%30.39 "Hg4 mi
10:00 PM61 °FPartly cloudy.6 mph94%30.36 "HgN/A
9:30 PM61 °FPassing clouds.5 mph94%30.36 "Hg6 mi
9:00 PM63 °FMostly cloudy.1 mph88%30.36 "HgN/A
8:30 PM63 °FPassing clouds.3 mph88%30.36 "Hg5 mi
8:00 PM63 °FPassing clouds.5 mph88%30.36 "HgN/A
7:30 PM63 °FOvercast.3 mph88%30.33 "HgN/A
7:00 PM63 °FPassing clouds.3 mph94%30.33 "HgN/A
6:30 PM64 °FSunny.5 mph88%30.33 "Hg10 mi
6:00 PM66 °FBroken clouds.5 mph83%30.33 "HgN/A
5:30 PM68 °FOvercast.5 mph78%30.33 "HgN/A
5:00 PM66 °FMore clouds than sun.6 mph83%30.33 "HgN/A
4:30 PM66 °FMore clouds than sun.6 mph83%30.33 "HgN/A
4:00 PM66 °FOvercast.6 mph83%30.30 "HgN/A
3:30 PM66 °FOvercast.N/A83%30.30 "HgN/A
3:00 PM66 °FMostly cloudy.3 mph88%30.30 "Hg4 mi
2:30 PM64 °FLow clouds.3 mph88%30.30 "Hg4 mi
2:00 PM64 °FLow clouds.3 mph88%30.30 "Hg5 mi
1:30 PM64 °FLow clouds.3 mph88%30.33 "Hg6 mi
1:00 PM63 °FLow clouds.5 mph94%30.33 "Hg5 mi
12:30 PM63 °FLow clouds.5 mph94%30.33 "HgN/A
12:00 PM63 °FLow clouds.5 mph94%30.33 "Hg6 mi
11:30 AM63 °FLow clouds.6 mph94%30.30 "Hg4 mi
11:00 AM61 °FFog.6 mph100%30.30 "Hg2 mi
Weather by CustomWeather, © 2016

See weather overviewHow to use our weather pages